Location: Byszew
(52.1813°N, 19.2693°E)
Time: 01:21:37
(UTC+00:00)

Cosmos 2322 Rocket - Pass Details

Date: 29 June 2021
Orbit: 833 x 850 km, 71.0° (Epoch: 29 July)

Event Time Altitude Azimuth Distance (km) Brightness Sun altitude
Rises 00:05:10 0° 327° (NNW) 3,424 6.0 -12.6°
Reaches altitude 10° 00:08:20 10° 345° (NNW) 2,484 5.5 -12.5°
Maximum altitude 00:12:28 20° 31° (NNE) 1,869 5.1 -12.3°
Drops below altitude 10° 00:16:34 10° 78° (ENE) 2,469 5.1 -12.1°
Sets 00:19:41 0° 95° (E) 3,398 5.6 -11.9°
